Home > Weather > Częstochowa > Past weeks

Flag for Poland Past Weather in Częstochowa, Poland — Yesterday and Last 2 Weeks

Now
55 °F

Cool.


Feels Like: 55 °F
Forecast: 62 / 82 °F
Wind: 1 mph from North

Location: Katowice Airport

Current Time: Jul 30, 2016 at 4:07:39 AM

Latest Report: Jul 30, 2016 at 3:30 AM


Visibility: 4 mi

Pressure: 29.95 "Hg

Humidity: 94%

Dew Point: 54 °F

Location of CzęstochowaLocation

Past Weather in Częstochowa — Graph

°F

Częstochowa Temperature Yesterday

Maximum temperature yesterday: 79 °F (at 12:00 PM)
Minimum temperature yesterday: 59 °F (at 4:00 AM)
Average temperature yesterday: 67 °F

High & Low Weather Summary for the Past Weeks

 TemperatureHumidityPressure
High82 °F (Jul 27, 5:30 PM)100% (Jul 16, 1:30 AM)30.21 "Hg (Jul 16, 1:30 AM)
Low46 °F (Jul 21, 4:00 AM)36% (Jul 22, 6:30 PM)29.92 "Hg (Jul 27, 7:00 PM)
Average65 °F80%30.05 "Hg
* Reported Jul 15 3:00 AM — Jul 30 3:00 AM, Częstochowa, Weather by CustomWeather, © 2016

Note: Actual official high and low records may vary slightly from our data, if they occured in-between our weather recording intervals... More about our weather records

Advertising

Częstochowa Weather History for the Previous 24 Hours

Scroll right to see more
 ConditionsComfort  
Time TempWeatherWind HumidityBarometerVisibility
3:00 AM
Sat, Jul 30
55 °FCool.2 mph100%29.95 "Hg1 mi
2:30 AM55 °FCool.1 mph100%29.95 "Hg1 mi
2:00 AM55 °FCool.1 mph100%29.95 "Hg1 mi
1:30 AM57 °FCool.1 mph100%29.95 "Hg3 mi
1:00 AM57 °FCool.No wind100%29.95 "Hg5 mi
12:30 AM59 °FFog.2 mph94%29.95 "HgN/A
12:00 AM59 °FFog.1 mph100%29.95 "HgN/A
11:30 PM
Fri, Jul 29
59 °FCool.1 mph100%29.95 "Hg5 mi
11:00 PM61 °FClear.1 mph94%29.95 "Hg10 mi
10:30 PM64 °FPassing clouds.3 mph88%29.95 "HgN/A
10:00 PM64 °FPassing clouds.3 mph83%29.95 "HgN/A
9:30 PM64 °FPassing clouds.3 mph83%29.95 "HgN/A
9:00 PM64 °FSunny.2 mph88%29.95 "Hg10 mi
8:30 PM63 °FSunny.2 mph94%29.92 "Hg10 mi
8:00 PM64 °FPassing clouds.1 mph88%29.92 "HgN/A
7:30 PM64 °FSprinkles. Passing clouds.2 mph88%29.92 "HgN/A
7:00 PM66 °FThunderstorms. Partly sunny.22 mph83%29.95 "HgN/A
6:30 PM72 °FSprinkles. Scattered clouds.3 mph69%29.92 "HgN/A
6:00 PM72 °FScattered clouds.5 mph69%29.92 "HgN/A
5:30 PM73 °FPassing clouds.7 mph61%29.92 "HgN/A
5:00 PM75 °FPassing clouds.6 mph57%29.92 "HgN/A
4:30 PM73 °FPassing clouds.3 mph61%29.92 "HgN/A
4:00 PM73 °FPassing clouds.6 mph61%29.92 "HgN/A
3:30 PM72 °FPassing clouds.6 mph73%29.92 "HgN/A
3:00 PM68 °FPassing clouds.5 mph83%29.92 "HgN/A
2:30 PM63 °FSprinkles. Partly sunny.2 mph94%29.95 "HgN/A
2:00 PM63 °FThunderstorms. Partly sunny.13 mph94%29.95 "Hg4 mi
1:30 PM66 °FThunderstorms. Partly sunny.32 mph83%29.95 "Hg3 mi
1:00 PM77 °FScattered clouds.9 mph54%29.92 "HgN/A
12:30 PM79 °FScattered clouds.9 mph54%29.92 "HgN/A
12:00 PM79 °FScattered clouds.7 mph58%29.92 "HgN/A
11:30 AM75 °FScattered clouds.10 mph65%29.95 "HgN/A
11:00 AM75 °FPassing clouds.9 mph61%29.95 "HgN/A
10:30 AM75 °FPassing clouds.8 mph69%29.95 "HgN/A
10:00 AM73 °FPassing clouds.6 mph74%29.95 "HgN/A
9:30 AM72 °FClear.5 mph83%29.95 "Hg5 mi
9:00 AM70 °FFog.5 mph88%29.95 "Hg3 mi
8:30 AM66 °FFog.3 mph94%29.98 "Hg2 mi
8:00 AM66 °FFog.2 mph94%29.98 "Hg2 mi
7:30 AM64 °FFog.3 mph94%29.95 "Hg1 mi
7:00 AM63 °FFog.3 mph100%29.95 "Hg1 mi
6:30 AM61 °FFog.3 mph100%29.95 "Hg1 mi
6:00 AM61 °FFog.3 mph100%29.95 "Hg0 mi
5:30 AM59 °FFog.3 mph100%29.95 "Hg0 mi
5:00 AM59 °FFog.1 mph94%29.95 "Hg0 mi
4:30 AM59 °FFog.1 mph100%29.95 "Hg0 mi
4:00 AM59 °FFog.1 mph94%29.95 "Hg0 mi
Weather by CustomWeather, © 2016

See weather overviewHow to use our weather pages